Location: Bennemühlen
(52.5740°N, 9.7135°E)
Time: 01:50:57
(UTC+00:00)

A-11 Canister half - Pass Details

Date: 22 February 2026
Orbit: 1513 x 1687 km, 47.2° (Epoch: 13 March)

Event Time Altitude Azimuth Distance (km) Brightness Sun altitude
Rises 20:58:40 0° 250° (WSW) 4,938 12.0 -37.1°
Reaches altitude 10° 21:01:53 10° 248° (WSW) 3,946 11.4 -37.4°
Enters shadow 21:09:06 49° 223° (SW) 2,066 9.5 -38.3°
Maximum altitude 21:11:49 63° 170° (S) 1,818 - -38.6°
Drops below altitude 10° 21:21:31 10° 93° (E) 3,853 - -39.6°
Sets 21:24:37 0° 90° (E) 4,816 - -39.9°
